Overview Statistics Trail Chart Weather Telemetry Raw packets
 

This is the latest recevied weather packets stored in our database for station/object W6MAF. If no packets are shown the sender has not sent any weather packets the latest 10 day(s).

<< 18 19 20 21 22 23 24 >>
Time Temp. Humidity Pressure Rain* Wind** Luminosity Snow
1788546216 22.78° C 6% - 0 mm 6.71 m/s, 219° - -
1788545918 22.78° C 6% - 0 mm 4.92 m/s, 179° - -
1788545620 22.78° C 6% - 0 mm 5.81 m/s, 205° - -
1788545323 22.78° C 6% - 0 mm 4.47 m/s, 208° - -
1788544727 22.78° C 7% - 0 mm 4.02 m/s, 184° - -
1788544426 22.78° C 6% - 0 mm 5.36 m/s, 236° - -
1788544129 22.78° C 7% - 0 mm 5.81 m/s, 226° - -
1788543831 22.78° C 7% - 0 mm 0 m/s - -
1788543533 22.78° C 8% - 0 mm 0 m/s - -
1788543236 22.22° C 9% - 0 mm 0 m/s - -
1788542942 22.22° C 10% - 0 mm 0 m/s - -
1788542637 22.22° C 11% - 0 mm 4.47 m/s, 229° - -
1788542339 21.67° C 12% - 0 mm 5.36 m/s, 231° - -
1788542042 21.67° C 13% - 0 mm 4.47 m/s, 224° - -
1788541744 21.67° C 14% - 0 mm 5.81 m/s, 218° - -
1788541446 21.11° C 16% - 0 mm 2.24 m/s, 239° - -
1788540848 20.56° C 17% - 0 mm 5.81 m/s, 253° - -
1788540551 20.56° C 17% - 0 mm 5.36 m/s, 235° - -
1788540252 20° C 18% - 0 mm 4.47 m/s, 221° - -
1788539955 20° C 19% - 0 mm 4.92 m/s, 231° - -
1788539657 20° C 19% - 0 mm 0 m/s - -
1788539359 20° C 21% - 0 mm 4.02 m/s, 215° - -
1788539058 19.44° C 23% - 0 mm 3.13 m/s, 212° - -
1788538761 19.44° C 25% - 0 mm 4.92 m/s, 172° - -
1788538463 18.89° C 26% - 0 mm 3.13 m/s, 256° - -

* Rain latest hour (hover to see other rain measurements)
** Current wind speed in m/s (hover to see current wind gust speed)